Погода в Успенской

Россия / Краснодарский край     45°46′27″N   41°03′41″E
темп.,
°C
ветер,
м/с
пор.,
м/с
влажн.,
%
обл.,
%
осадки,
мм/ч
давл.,
гПа
погр.,
м
23 сентября, чт
чт2300:00+13юз226280 0.0 101456
03:00+12юв2368100 0.0 101448
06:00+11юв3570100 0.0 1013105
09:00+14юв2364100 0.0 1013428
12:00+14вюв4465100 0.1 1012649
15:00+11вюв3487100 4.3 1012276
18:00+12вюв3587100 0.6 1012362
21:00+12вюв368799 0.6 1013285
24 сентября, пт
пт2400:00+11вюв1286100 0.0 101272
03:00+11юв1288100 0.4 1012100
06:00+11ююв2291100 0.9 1013147
09:00+12ююз3485100 0.9 1013436
12:00+16юз465899 0.3 10131451
15:00+16з6754100 0.3 10121429
18:00+14з595895 0.0 1013597
21:00+13зюз4860100 0.0 1014305
25 сентября, сб
сб2500:00+13юз41367100 0.1 1012771
03:00+12ююз71487100 1.2 1011934
06:00+12юз4995100 11.3 1009567
09:00+12юз4993100 20.0 1011503
12:00+15юз71073100 4.4 1012986
15:00+16з71063100 5.9 10121499
18:00+13з6117572 1.1 1015625
21:00+12зюз612825 1.3 1017448
26 сентября, вс
вс2600:00+11з6128421 0.1 1018413
03:00+12з51283100 0.1 1019527
06:00+12зюз5128213 0.3 1019468
09:00+13зюз61280100 0.3 1019754
12:00+15зюз81470100 0.0 10181050
15:00+16зюз91670100 0.0 10171295
18:00+16зюз91768100 0.1 10161118
21:00+15зюз9167751 0.5 1016807
27 сентября, пн
пн2700:00+15зюз81486100 0.9 1015619
03:00+13зсз510840 1.2 1015376
06:00+11сз488766 0.0 1016339
09:00+13сз57680 0.0 1017735
12:00+16сз56501 0.0 10171421
15:00+17сз56455 0.0 10171790
18:00+14сз23545 0.0 101843
21:00+12св24605 0.0 102067